Location: Kampung Segan
(3.1399°N, 113.1002°E)
Time: 07:29:43
(UTC+00:00)

MOS 1-B Rocket - Pass Details

Date: 17 October 2025
Orbit: 891 x 1603 km, 99.0° (Epoch: 17 November)

Event Time Altitude Azimuth Distance (km) Brightness Sun altitude
Rises 18:31:28 0° 53° (NE) 4,709 7.9 -55.0°
Reaches altitude 10° 18:36:18 10° 76° (ENE) 3,791 7.4 -53.8°
Maximum altitude 18:40:34 14° 104° (ESE) 3,489 7.2 -52.8°
Drops below altitude 10° 18:44:49 10° 132° (SE) 3,811 7.4 -51.7°
Sets 18:49:37 0° 154° (SSE) 4,752 7.9 -50.6°
